Back to catalog

STARLINK-3529

AliveCommunicationsVLEO
NORAD 51724·PAYLOAD·🇺🇸 United States

Launched Feb 21, 2022 from Cape Canaveral Space Force Station

Loading…

Next Passes (next 24 hours)

TLE

FreshSource: CelesTrak SupGP

Epoch: Sep 15, 2026, 01:12 UTC

1 51724C 22016L   26258.05048611 -.00017153  00000+0 -52069-3 0  2589
2 51724  53.1593 189.2156 0001321  88.7763 121.4570 15.33545586    11

Track STARLINK-3529 in real time with AllMySat

Download on the App Store